Location: Sabalos
(43.2860°N, 0.1414°E)
Time: 03:32:39
(UTC+00:00)

DELTA 2 R/B (1) - Pass Details

Date: 05 July 2020
Orbit: 791 x 802 km, 39.6° (Epoch: 06 August)

Event Time Altitude Azimuth Distance (km) Brightness Sun altitude
Rises 22:19:47 0° 243° (WSW) 3,283 6.8 -19.8°
Reaches altitude 10° 22:22:19 10° 238° (WSW) 2,357 5.9 -20.0°
Maximum altitude 22:27:38 48° 165° (SSE) 1,035 3.7 -20.4°
Enters shadow 22:29:54 31° 111° (ESE) 1,373 4.4 -20.6°
